Temperature
12 12 12 12 11 11 11 11 11 12 12 11 11 11 11 11 11 11 10 11 11 11 11 11 11 11 11 11 11 11 11 11 11 11 11 11 11 10
12 12 12 11 11 11 11 11 11 11 11 11 10 10 10 10 11 10 10 11 11 11 11 11 11 11 11 11 11 11 11 11 11 11 11 11 10 10
12 11 11 11 11 11 11 11 11 10 11 11 10 10 10 10 10 10 10 10 10 11 11 11 11 11 11 11 11 10 10 10 10 10 10 10 10 10
11 11 11 11 11 11 11 11 10 10 10 10 10 10 10 10 10 10 10 10 10 10 11 11 11 11 11 10 10 10 10 10 10 10 10 10 10 10
11 11 11 11 11 10 10 10 10 10 10 10 10 10 10 10 10 10 10 10 10 10 10 10 10 10 10 10 10 10 10 10 10 10 10 10 10 9
11 11 11 11 10 10 10 10 10 10 10 10 10 10 9 9 9 9 9 9 9 9 10 10 10 10 10 10 10 10 10 10 9 9 9 9 9 9
11 11 11 10 10 10 10 10 10 10 10 9 9 9 9 9 9 9 9 9 9 9 9 9 9 9 9 10 10 10 9 9 9 9 9 9 9 9
10 10 10 10 10 10 10 10 9 9 9 9 9 9 9 9 9 9 9 9 9 9 9 9 9 9 9 9 9 9 9 9 9 9 9 9 9 9
10 10 10 10 10 10 10 10 9 9 9 9 9 9 9 9 9 9 9 9 8 9 9 9 9 9 9 9 9 9 9 9 9 9 8 8 8 8
10 10 10 10 9 9 9 9 9 9 9 9 9 9 9 9 9 9 9 8 8 8 8 8 8 8 8 9 9 9 9 9 8 8 8 8 8 8
9 9 9 9 9 9 9 9 9 9 9 9 9 9 9 9 9 8 8 8 8 8 8 8 8 8 8 8 8 8 8 8 8 8 8 8 8 8
9 9 9 9 9 9 9 9 8 9 8 8 8 8 8 8 8 8 8 8 8 8 8 8 7 7 7 8 7 7 8 8 8 8 8 7 7 7
9 9 9 9 9 9 9 8 8 8 8 8 8 8 8 8 8 7 7 7 7 7 7 7 7 7 7 7 7 7 7 7 7 7 7 7 7 7
9 9 9 9 9 9 8 8 8 8 8 7 7 7 7 7 7 7 7 7 7 7 7 7 7 7 7 7 7 7 7 7 6 6 6 6 6 6
8 8 8 8 8 8 8 8 8 7 7 7 7 7 7 7 7 7 7 7 7 7 7 6 6 6 6 6 6 6 6 6 6 6 6 6 6 6
8 8 8 8 8 8 7 7 7 7 7 7 7 7 7 7 7 7 6 6 6 6 6 6 6 6 6 6 6 6 6 5 6 6 6 6 6 6
7 7 7 7 7 7 7 7 6 6 6 6 6 6 6 6 6 6 6 6 6 6 6 6 6 6 6 6 5 5 5 5 5 5 5 5 6 6
7 6 6 6 6 6 6 6 6 6 6 6 6 6 6 6 5 5 5 5 5 5 5 5 5 5 5 5 5 5 5 5 5 5 5 5 5 5
6 6 6 6 6 6 5 5 5 5 5 5 5 5 5 5 5 5 5 5 5 5 5 5 5 5 5 5 5 5 5 5 5 5 5 5 5 5
5 5 5 5 5 5 5 5 5 5 5 5 5 5 5 5 4 5 5 5 5 5 5 5 5 5 5 5 5 5 5 5 5 4 4 4 4 5
5 5 5 5 5 5 5 5 5 4 4 4 4 4 4 4 4 4 4 5 4 4 4 4 5 5 4 4 4 4 4 5 4 4 4 4 4 4
5 4 4 4 4 4 4 4 4 4 4 4 4 4 4 4 4 4 4 4 4 4 4 4 4 4 4 4 4 4 4 4 4 4 4 4 3 3
4 4 4 4 4 4 4 4 4 4 4 4 4 4 4 4 4 4 4 3 3 4 4 3 3 3 4 4 4 4 4 4 4 4 4 3 3 3
Wind_Speed
3 3 2 2 2 3 3 3 3 3 2 1 1 1 1 1 1 2 1 2 1 0 0 0 1 1 1 1 1 1 1 1 1 2 2 2 3 3
2 3 3 2 2 2 3 3 4 4 3 2 2 1 1 2 2 3 1 2 2 1 1 1 2 2 2 2 1 1 1 1 1 2 2 2 3 3
3 3 3 3 3 3 3 3 3 4 4 3 2 2 3 2 1 2 2 2 2 3 2 2 2 2 2 2 1 1 0 1 1 2 2 2 3 3
4 4 3 2 4 3 3 3 3 4 4 4 3 3 3 3 2 2 2 2 2 3 3 3 3 2 2 2 2 2 2 2 2 2 2 3 3 3
4 4 4 4 4 3 4 4 3 4 4 4 3 3 3 2 3 3 2 2 2 3 4 4 4 3 3 3 3 3 2 2 2 2 2 3 4 4
4 4 4 4 4 4 3 4 4 4 4 4 4 3 3 3 3 3 3 3 2 2 2 3 4 5 5 4 4 4 3 3 2 2 2 3 4 4
4 4 4 3 3 3 3 3 4 4 4 4 4 3 3 3 3 3 3 3 3 2 2 3 3 4 4 5 5 4 3 3 3 2 3 4 4 5
4 4 4 5 4 5 5 4 5 5 5 5 5 5 4 4 3 4 3 3 3 2 3 3 3 3 3 3 3 4 4 4 3 3 3 4 5 5
4 4 3 4 5 5 5 6 6 6 7 6 6 6 5 4 4 5 4 4 4 2 3 3 3 3 3 2 4 4 4 4 4 4 4 4 5 5
4 4 5 4 4 4 5 5 5 5 6 6 6 5 4 3 4 5 4 4 4 2 3 3 3 3 3 2 4 5 5 4 4 4 4 4 5 6
4 5 5 5 3 4 5 5 5 4 3 5 4 3 1 1 2 3 4 4 4 3 3 3 3 3 3 3 4 6 5 4 4 4 4 5 6 7
3 4 4 4 4 5 6 6 6 5 4 5 5 5 5 4 5 5 4 5 4 3 3 3 3 3 3 3 3 4 5 5 5 5 5 5 5 6
4 4 3 3 5 6 7 6 5 5 5 5 5 4 4 4 4 4 4 4 4 3 2 3 3 3 4 3 3 3 4 4 4 5 6 5 5 5
4 4 3 3 4 6 5 4 4 5 4 4 5 5 4 4 4 4 4 4 4 4 3 4 3 4 4 4 4 3 3 4 4 4 4 5 6 7
4 3 3 3 4 5 5 5 5 5 5 5 5 5 4 4 4 3 4 4 5 4 4 5 4 4 5 5 4 4 4 4 4 4 4 4 4 4
4 3 4 4 4 4 4 4 4 5 5 5 5 4 4 4 4 4 4 4 4 4 4 5 5 5 5 5 5 4 4 3 3 4 4 5 5 5
3 3 3 3 3 3 3 3 3 4 5 4 4 4 4 4 4 4 4 4 5 5 4 3 4 4 4 5 5 4 4 4 3 3 4 5 5 5
3 4 4 4 4 4 4 4 3 3 4 4 4 4 4 4 4 4 4 5 5 5 4 3 3 3 3 3 4 5 4 4 4 4 4 5 5 5
4 4 4 4 4 4 4 4 4 4 3 4 4 4 4 4 4 4 5 5 5 5 4 4 4 4 5 5 4 5 5 4 4 4 4 5 6 5
4 4 4 4 4 4 4 4 4 3 3 4 4 4 5 5 5 5 5 5 5 5 4 4 4 5 6 5 4 4 6 5 4 5 5 5 5 5
5 5 5 4 4 4 4 4 4 4 4 4 4 5 5 5 5 5 5 5 5 5 5 5 5 5 5 4 4 4 4 5 6 5 5 5 5 5
5 5 5 5 5 4 4 4 4 4 4 4 4 4 5 5 5 6 5 5 5 6 6 5 4 4 5 6 6 6 4 3 4 6 6 6 4 4
5 5 5 5 5 5 4 5 6 5 4 4 4 4 4 4 5 5 5 5 5 5 5 4 3 4 5 5 5 5 5 4 3 3 4 5 7 7
Wind_Direction
245 236 237 247 244 248 251 255 266 266 259 229 228 217 231 248 226 235 213 125 161 191 17 302 248 240 244 309 348 359 2 355 328 335 334 336 335 338
240 242 239 237 235 234 245 251 257 266 266 251 241 233 233 240 233 246 228 147 168 178 206 266 245 239 239 248 278 331 7 2 352 340 329 336 336 336
230 237 241 242 233 226 233 242 244 251 251 250 245 241 227 232 219 243 230 224 195 183 209 244 253 236 240 243 245 235 285 315 324 322 313 320 324 331
234 235 239 236 240 242 237 240 240 244 242 241 234 238 243 237 242 246 230 229 228 170 194 230 240 237 239 235 228 229 254 273 284 296 310 312 314 319
235 237 237 233 235 241 240 244 243 238 235 234 234 227 235 226 236 243 236 241 242 200 193 218 225 228 230 232 231 236 247 259 269 282 303 317 318 313
236 241 238 232 237 244 242 241 238 234 231 231 228 218 214 220 232 237 232 229 240 235 217 227 214 217 222 225 226 227 234 248 260 272 292 303 303 303
232 236 238 244 261 261 260 249 238 231 227 230 228 225 220 216 226 229 235 234 229 231 237 234 217 221 211 211 212 214 222 232 244 266 286 292 295 294
233 236 233 227 229 231 248 261 262 240 230 232 231 229 233 231 231 232 232 237 240 221 246 252 239 241 235 225 182 193 212 225 240 253 270 286 290 293
235 238 235 233 228 230 224 225 237 247 246 249 245 242 239 231 227 229 233 240 249 242 258 255 242 253 255 222 175 197 215 229 238 248 261 276 285 292
239 238 237 237 229 238 236 233 236 240 240 240 246 252 251 237 231 238 239 241 249 236 239 257 254 256 255 234 180 199 219 229 238 245 257 268 276 282
245 243 240 236 224 237 237 235 234 236 233 238 256 253 288 277 248 227 222 227 237 233 226 251 260 261 261 241 191 188 205 215 232 250 261 265 274 275
253 246 234 245 234 231 231 230 232 230 223 213 215 218 215 199 208 226 234 236 242 240 217 236 247 250 250 234 224 210 207 208 220 233 245 259 274 274
254 254 248 219 236 240 246 240 240 243 229 224 221 215 214 212 210 221 231 244 246 250 233 236 245 250 254 248 245 239 237 240 232 228 222 230 247 266
255 261 261 217 229 239 243 241 242 240 230 223 223 219 217 216 218 219 227 237 246 257 249 242 250 253 257 263 259 242 242 248 254 260 258 226 229 235
258 270 270 235 227 230 232 229 228 233 230 226 230 227 224 220 215 219 228 232 244 252 250 245 244 248 253 258 266 262 260 257 248 255 261 262 259 258
249 233 217 219 227 239 241 227 232 237 239 234 233 234 226 218 219 218 218 219 232 242 240 246 246 246 248 256 260 259 258 254 249 255 259 262 263 258
259 251 249 245 243 245 246 244 241 237 238 240 235 232 232 229 227 220 222 223 233 237 233 230 237 244 253 260 254 254 254 253 250 257 263 266 265 263
227 236 239 241 244 242 239 238 235 236 237 238 236 232 231 234 230 221 221 227 237 233 227 226 221 233 244 250 245 252 254 260 261 256 258 266 267 269
227 240 242 243 245 244 240 240 240 243 239 235 234 234 232 232 231 225 222 230 236 233 230 225 225 230 244 258 237 222 252 260 261 257 257 264 271 275
238 242 245 247 247 245 244 245 242 239 236 235 235 234 233 228 230 229 227 231 232 235 234 228 229 236 245 259 265 260 234 249 256 258 264 271 273 276
241 242 245 246 247 246 248 246 241 239 238 234 233 232 234 231 230 235 232 225 232 234 235 237 239 239 254 257 253 256 254 227 242 258 264 265 271 272
241 242 243 245 244 243 242 241 241 238 236 236 234 231 229 232 233 233 233 230 232 237 242 245 237 230 239 242 250 259 270 264 246 244 246 249 263 264
239 241 243 243 242 240 239 239 239 238 234 234 235 238 236 233 236 235 233 234 237 239 242 242 238 235 238 240 253 263 265 266 267 268 262 237 238 256
Height
1528 1528 1528 1528 1528 1527 1528 1528 1529 1528 1527 1527 1526 1526 1525 1525 1524 1524 1524 1523 1523 1523 1523 1523 1523 1523 1523 1523 1523 1522 1522 1522 1522 1522 1522 1522 1522 1522
1526 1526 1526 1526 1525 1525 1525 1526 1527 1527 1526 1525 1524 1524 1524 1523 1523 1523 1522 1522 1522 1522 1521 1521 1521 1521 1521 1521 1521 1521 1521 1521 1520 1520 1520 1520 1520 1520
1524 1524 1524 1524 1524 1523 1523 1523 1524 1524 1524 1523 1523 1522 1522 1522 1521 1521 1521 1521 1520 1520 1520 1520 1520 1519 1519 1519 1519 1519 1519 1519 1519 1518 1518 1518 1518 1518
1522 1522 1522 1521 1521 1521 1521 1521 1521 1521 1522 1521 1520 1520 1520 1520 1520 1519 1519 1519 1519 1518 1518 1518 1518 1518 1517 1517 1517 1517 1517 1517 1517 1516 1516 1516 1516 1515
1519 1519 1519 1519 1519 1519 1518 1518 1518 1518 1518 1518 1518 1518 1518 1518 1517 1517 1517 1517 1517 1516 1516 1516 1516 1516 1516 1516 1515 1515 1515 1514 1514 1514 1514 1513 1513 1513
1516 1516 1516 1516 1516 1516 1516 1516 1515 1515 1516 1516 1516 1515 1515 1515 1515 1515 1515 1515 1515 1515 1514 1514 1514 1514 1514 1513 1513 1513 1512 1512 1512 1511 1511 1511 1510 1510
1513 1513 1513 1513 1513 1513 1513 1513 1513 1513 1513 1513 1513 1513 1513 1512 1513 1513 1513 1513 1513 1512 1512 1512 1512 1512 1512 1511 1511 1510 1510 1510 1509 1509 1509 1508 1508 1507
1509 1509 1509 1509 1509 1509 1509 1509 1509 1510 1510 1510 1510 1510 1510 1510 1510 1510 1511 1511 1511 1511 1510 1510 1510 1510 1510 1509 1508 1508 1508 1507 1507 1507 1506 1506 1505 1504
1506 1506 1506 1505 1505 1506 1505 1505 1506 1505 1506 1507 1507 1507 1508 1507 1507 1508 1508 1508 1508 1508 1508 1507 1507 1507 1507 1507 1506 1505 1505 1504 1504 1504 1503 1503 1502 1502
1502 1502 1502 1502 1502 1502 1502 1502 1502 1502 1502 1503 1503 1504 1504 1504 1505 1505 1505 1505 1505 1505 1505 1505 1505 1505 1504 1504 1503 1503 1502 1502 1502 1501 1501 1500 1499 1499
1499 1499 1499 1499 1498 1498 1498 1498 1498 1498 1498 1498 1499 1500 1500 1500 1501 1501 1502 1502 1502 1502 1502 1502 1502 1502 1501 1501 1500 1500 1500 1499 1499 1498 1498 1497 1497 1496
1495 1495 1495 1494 1495 1494 1494 1494 1494 1494 1495 1495 1495 1496 1496 1497 1497 1498 1498 1499 1499 1499 1498 1499 1498 1499 1499 1498 1498 1497 1497 1496 1496 1495 1495 1494 1494 1493
1491 1491 1491 1490 1490 1490 1490 1490 1490 1491 1492 1492 1492 1492 1493 1493 1494 1494 1495 1495 1496 1496 1495 1495 1495 1496 1496 1495 1495 1494 1494 1494 1493 1493 1492 1491 1491 1490
1488 1487 1487 1486 1486 1486 1486 1486 1487 1487 1488 1488 1488 1489 1489 1489 1490 1490 1491 1491 1492 1492 1491 1491 1492 1492 1492 1492 1491 1491 1491 1491 1490 1490 1489 1488 1488 1487
1484 1483 1483 1483 1482 1482 1482 1482 1483 1484 1484 1484 1484 1485 1485 1486 1486 1487 1487 1488 1488 1488 1488 1488 1488 1488 1489 1489 1488 1487 1487 1487 1487 1486 1486 1485 1485 1484
1480 1479 1479 1478 1478 1478 1478 1478 1479 1479 1480 1480 1481 1481 1481 1481 1482 1482 1483 1483 1484 1484 1484 1484 1484 1485 1484 1484 1485 1484 1484 1483 1483 1483 1482 1482 1481 1481
1475 1475 1475 1474 1474 1474 1474 1474 1474 1475 1475 1476 1476 1477 1477 1477 1477 1478 1479 1479 1480 1480 1480 1480 1481 1481 1481 1481 1481 1481 1480 1480 1480 1479 1478 1478 1477 1477
1471 1470 1470 1470 1470 1469 1469 1470 1470 1470 1470 1471 1472 1472 1472 1473 1473 1474 1474 1475 1476 1476 1476 1477 1477 1478 1478 1477 1478 1477 1477 1476 1476 1475 1475 1474 1473 1473
1467 1466 1466 1465 1465 1465 1465 1465 1465 1466 1466 1466 1467 1467 1468 1469 1469 1469 1470 1471 1471 1472 1473 1473 1474 1474 1474 1474 1473 1474 1473 1473 1472 1471 1471 1470 1469 1469
1462 1462 1461 1461 1461 1461 1461 1461 1461 1461 1461 1461 1462 1463 1464 1465 1465 1465 1465 1466 1467 1468 1469 1469 1469 1470 1470 1471 1470 1469 1469 1469 1468 1468 1467 1466 1466 1465
1457 1457 1457 1457 1457 1457 1456 1456 1456 1456 1456 1457 1457 1458 1459 1460 1460 1461 1461 1462 1463 1463 1464 1464 1465 1466 1466 1467 1466 1465 1466 1465 1464 1464 1463 1462 1461 1460
1453 1453 1452 1452 1452 1452 1452 1452 1452 1452 1452 1452 1452 1453 1454 1455 1456 1457 1457 1458 1458 1459 1460 1460 1461 1461 1462 1462 1461 1461 1461 1461 1460 1460 1459 1459 1458 1456
1448 1448 1448 1448 1448 1448 1448 1447 1447 1447 1448 1448 1448 1449 1450 1451 1452 1453 1453 1454 1454 1455 1456 1456 1457 1457 1457 1457 1457 1457 1456 1456 1456 1455 1455 1454 1454 1453